Content
SEND FEEDBACK

Daily
Averages
Monthly
Summary
United States of America

JAMESTOWN, NEW YORK


Home > North America > United States > New York
Elevation: 1725 feet     Latitude: 42 09N     Longitude: 079 15W

WEATHER
 
SELECT A DAY
Number of Records: 343,911;   Date Range: 1/1/95 - 7/29/14
 
SHARE

PRINT THIS DATA

[ ← Previous Day ]
WEATHER ALMANAC - DECEMBER 25, 2013
[ Next Day → ]
[ °C ]   °F
Weather ElementAverageHighLow
Temperature14.6 °F21.2 °F (5:35 pm)6.8 °F (4:35 am)
Dewpoint8.2 °F17.6 °F (11:55 pm)1.4 °F (6:15 am)
Humidity76.6 %100 % (3:35 am)58 % (6:35 pm)
Barometer30.28 in30.38 in (12:35 am)30.11 in (11:55 pm)
Wind Speed7.1 mph13.8 mph (11:55 pm)
Wind Gust18.4 mph (10:35 pm)
Weather ElementAverage
Visibility9.6 mi
Wind DirectionSE (140.3 °)

Weather ElementTotal
Precipitation---
Heating Degree Days51 (Base 65)
Averaged from 71 records on December 25, 2013
WEATHER CONDITIONS BREAKOUT
WIND DIRECTION BREAKOUT
WEATHER BY HOUR - DECEMBER 25, 2013
[ °C ]   °F
Local TimeTemperatureDewpointHumidityBarometerVisibilityWind DirectionWind SpeedGust SpeedPrecipitationEventsConditions
12:35 AM12.2 °F8.6 °F85 %30.38 in2.5 miNorth (360°)4.6 mphOvercast
12:55 AM12.2 °F6.8 °F79 %30.37 in2.0 miNNE (20°)6.9 mphOvercast
1:15 AM10.4 °F6.8 °F85 %30.37 in3.0 miNorth (10°)6.9 mphOvercast
1:35 AM10.4 °F6.8 °F85 %30.36 in4.0 miNorth (360°)6.9 mphOvercast
1:55 AM8.6 °F5.0 °F85 %30.35 in9.0 miNNE (20°)5.8 mphOvercast
2:15 AM8.6 °F6.8 °F92 %30.36 in10.0 miNNE (20°)3.5 mphScattered Clouds
2:35 AM8.6 °F5.0 °F85 %30.37 in10.0 miNorth (10°)3.5 mphScattered Clouds
2:55 AM8.6 °F5.0 °F85 %30.38 in10.0 miCalmOvercast
3:15 AM8.6 °F3.2 °F79 %30.38 in10.0 miCalmOvercast
3:35 AM8.6 °F8.6 °F100 %30.38 in10.0 miCalmOvercast
3:55 AM8.6 °F3.2 °F79 %30.38 in10.0 miCalmOvercast
4:15 AM8.6 °F5.0 °F85 %30.38 in10.0 miCalmOvercast
4:35 AM6.8 °F3.2 °F85 %30.37 in10.0 miCalmMostly Cloudy
4:55 AM8.6 °F5.0 °F85 %30.37 in10.0 miCalmScattered Clouds
5:15 AM6.8 °F3.2 °F85 %30.37 in10.0 miCalmMostly Cloudy
5:35 AM6.8 °F3.2 °F85 %30.37 in10.0 miSouth (170°)3.5 mphOvercast
5:55 AM6.8 °F3.2 °F85 %30.37 in10.0 miSouth (180°)3.5 mphOvercast
6:15 AM6.8 °F1.4 °F79 %30.37 in10.0 miCalmScattered Clouds
6:35 AM6.8 °F3.2 °F85 %30.37 in10.0 miCalmMostly Cloudy
6:55 AM6.8 °F3.2 °F85 %30.38 in10.0 miSouth (190°)3.5 mphPartly Cloudy
7:15 AM6.8 °F1.4 °F79 %30.37 in10.0 miSSE (160°)3.5 mphClear
7:35 AM6.8 °F1.4 °F79 %30.36 in10.0 miSSE (160°)3.5 mphClear
7:55 AM6.8 °F3.2 °F85 %30.37 in10.0 miSouth (180°)4.6 mphPartly Cloudy
8:15 AM6.8 °F3.2 °F85 %30.37 in10.0 miCalmScattered Clouds
8:35 AM6.8 °F3.2 °F85 %30.37 in10.0 miCalmMostly Cloudy
8:55 AM8.6 °F5.0 °F85 %30.38 in10.0 miSouth (170°)4.6 mphMostly Cloudy
9:15 AM8.6 °F6.8 °F92 %30.37 in10.0 miSSE (160°)6.9 mphScattered Clouds
9:35 AM10.4 °F6.8 °F85 %30.37 in10.0 miSSE (160°)8.1 mphOvercast
9:55 AM10.4 °F8.6 °F92 %30.36 in10.0 miSSE (150°)5.8 mphOvercast
10:15 AM10.4 °F8.6 °F92 %30.35 in10.0 miSSE (160°)9.2 mphMostly Cloudy
10:35 AM12.2 °F8.6 °F85 %30.34 in10.0 miSouth (170°)8.1 mphOvercast
10:55 AM12.2 °F10.4 °F92 %30.34 in10.0 miSSE (160°)11.5 mphScattered Clouds
11:15 AM12.2 °F8.6 °F85 %30.33 in10.0 miSouth (170°)10.4 mphMostly Cloudy
11:35 AM14.0 °F10.4 °F86 %30.32 in10.0 miSouth (170°)11.5 mphOvercast
11:55 AM15.8 °F8.6 °F73 %30.32 in10.0 miSouth (180°)11.5 mphScattered Clouds
12:15 PM15.8 °F8.6 °F73 %30.31 in10.0 miSouth (170°)11.5 mphMostly Cloudy
12:35 PM15.8 °F10.4 °F79 %30.29 in10.0 miSSE (160°)10.4 mphMostly Cloudy
12:55 PM15.8 °F8.6 °F73 %30.28 in10.0 miSouth (180°)11.5 mphOvercast
1:15 PM17.6 °F8.6 °F68 %30.26 in10.0 miSouth (170°)11.5 mphOvercast
1:35 PM17.6 °F8.6 °F68 %30.26 in10.0 miSouth (170°)9.2 mph16.1 mphOvercast
1:55 PM17.6 °F8.6 °F68 %30.25 in10.0 miSouth (170°)6.9 mphOvercast
2:15 PM17.6 °F8.6 °F68 %30.23 in10.0 miSSE (160°)8.1 mphOvercast
2:35 PM17.6 °F10.4 °F73 %30.23 in10.0 miSSE (160°)9.2 mphOvercast
2:55 PM19.4 °F10.4 °F68 %30.22 in10.0 miSouth (180°)8.1 mphOvercast
3:15 PM19.4 °F10.4 °F68 %30.22 in10.0 miSouth (170°)9.2 mphOvercast
3:35 PM19.4 °F10.4 °F68 %30.21 in10.0 miSSE (160°)10.4 mphOvercast
3:55 PM19.4 °F10.4 °F68 %30.21 in10.0 miSSE (160°)6.9 mphOvercast
4:15 PM19.4 °F10.4 °F68 %30.20 in10.0 miSSE (160°)11.5 mphOvercast
4:35 PM19.4 °F10.4 °F68 %30.20 in10.0 miSouth (170°)9.2 mphOvercast
4:55 PM19.4 °F10.4 °F68 %30.20 in10.0 miSouth (180°)10.4 mphOvercast
5:15 PM19.4 °F10.4 °F68 %30.19 in10.0 miSouth (180°)10.4 mphOvercast
5:35 PM21.2 °F10.4 °F63 %30.19 in10.0 miSouth (180°)8.1 mphOvercast
5:55 PM21.2 °F10.4 °F63 %30.18 in10.0 miSouth (180°)8.1 mphOvercast
6:15 PM21.2 °F10.4 °F63 %30.18 in10.0 miSouth (180°)8.1 mphOvercast
6:35 PM21.2 °F8.6 °F58 %30.18 in10.0 miSouth (180°)10.4 mphOvercast
6:55 PM21.2 °F8.6 °F58 %30.18 in10.0 miSouth (190°)9.2 mph16.1 mphOvercast
7:15 PM21.2 °F10.4 °F63 %30.17 in10.0 miSouth (190°)9.2 mphOvercast
7:35 PM21.2 °F10.4 °F63 %30.17 in10.0 miSouth (190°)10.4 mphOvercast
7:55 PM21.2 °F10.4 °F63 %30.16 in10.0 miSouth (180°)9.2 mphOvercast
8:15 PM21.2 °F10.4 °F63 %30.16 in10.0 miSouth (190°)10.4 mphOvercast
8:35 PM21.2 °F10.4 °F63 %30.15 in10.0 miSouth (180°)10.4 mphOvercast
8:55 PM21.2 °F12.2 °F68 %30.15 in10.0 miSouth (190°)10.4 mphOvercast
9:15 PM21.2 °F10.4 °F63 %30.14 in10.0 miSouth (190°)10.4 mphOvercast
9:35 PM21.2 °F12.2 °F68 %30.14 in10.0 miSouth (190°)11.5 mphOvercast
9:55 PM21.2 °F12.2 °F68 %30.14 in10.0 miSouth (190°)11.5 mphOvercast
10:15 PM21.2 °F12.2 °F68 %30.13 in10.0 miSouth (190°)9.2 mphOvercast
10:35 PM21.2 °F12.2 °F68 %30.13 in10.0 miSSW (200°)9.2 mph18.4 mphOvercast
10:55 PM21.2 °F15.8 °F80 %30.12 in10.0 miSSW (200°)11.5 mph16.1 mphOvercast
11:15 PM21.2 °F15.8 °F80 %30.12 in10.0 miSouth (190°)10.4 mphOvercast
11:35 PM21.2 °F15.8 °F80 %30.12 in10.0 miSSW (200°)12.7 mph17.3 mphOvercast
11:55 PM21.2 °F17.6 °F86 %30.11 in10.0 miSouth (190°)13.8 mphOvercast
Hourly data recorded from KJHW, located miles away from Jamestown, New York







STORIES FROM OUR PARTNERS